Regional Weather Roundup
Issued by NWS

Home | Current Version | Previous Version | Graphics & Text | Print | Product List | Glossary On
Versions: 1 2 3 4 5 6 7 8 9 10 11 12 13 14 15 16 17 18 19 20 21 22 23 24 25 26 27 28 29 30 31 32 33 34 35 36 37 38 39 40 41 42 43 44 45 46 47 48 49 50
000
ASUS43 KMKX 202300
RWRWI

WISCONSIN REGIONAL WEATHER ROUNDUP
NATIONAL WEATHER SERVICE MILWAUKEE/SULLIVAN WI
500 PM CST MON FEB 20 2017

NOTE: "FAIR" INDICATES FEW OR NO CLOUDS BELOW 12,000 FEET WITH NO
SIGNIFICANT WEATHER AND/OR OBSTRUCTIONS TO VISIBILITY.

WIZ001-002-006>008-014>016-023>028-210000-
NORTHWEST WISCONSIN

CITY           SKY/WX    TMP DP  RH WIND       PRES   REMARKS
SUPERIOR ARPT  LGT RAIN  36  36 100 NE8       29.66F WCI  29
ASHLAND        RAIN      49  47  93 S9G20     29.67F FOG
HAYWARD        RAIN      48  45  89 S14G22    29.68F FOG
SIREN          RAIN      49  48  97 SW12G17   29.68R
CUMBERLAND     RAIN      45  45 100 S10       29.69S
RICE LAKE      RAIN      47  47  97 CALM      29.71S
CHETEK         RAIN      48  48 100 SE9       29.71S
LADYSMITH      RAIN      49  48  95 S12G17    29.75R
EAU CLAIRE     NOT AVBL
MENOMONIE      LGT RAIN  50  50 100 SE8       29.71S
NEW RICHMOND   RAIN      50  50  99 S10       29.70R
OSCEOLA        LGT RAIN  51  51 100 S13       29.71R
$$

WIZ003>005-009-010-017-018-210000-
NORTH CENTRAL WISCONSIN

CITY           SKY/WX    TMP DP  RH WIND       PRES   REMARKS
MANITOWISH WTR RAIN      43  43 100 SE13      29.77S
ARBOR VITAE    HVY RAIN  45  43  93 SE12G20   29.78F
WOODRUFF       HVY RAIN  45  43  93 SE12G20   29.78F
RHINELANDER    LGT RAIN  47  45  93 SE17G24   29.81F FOG
EAGLE RIVER    LGT RAIN  46  38  74 S9G17     29.82S
LAND O LAKES   LGT RAIN  44  40  86 SE13G20   29.81F
PHILLIPS       RAIN      45  45 100 S15       29.75S
TOMAHAWK       RAIN      44  42  92 SE7       29.79F
MEDFORD        RAIN      45  44  95 SE13G23   29.77F
MERRILL        NOT AVBL
$$

WIZ029-030-035-036-043>047-210000-
CENTRAL WISCONSIN

CITY           SKY/WX    TMP DP  RH WIND       PRES   REMARKS
WAUSAU         RAIN      46  44  93 SE14      29.79F FOG
MOSINEE        LGT RAIN  46  46 100 SE15G21   29.82F
MARSHFIELD     RAIN      48  47  96 S13       29.77F FOG
STEVENS POINT  RAIN      46  45  99 SE8       29.85F
WAUPACA        LGT RAIN  50  45  81 SE9       29.89F
WAUTOMA        RAIN      53  51  93 SE7       29.87F FOG
WISC RAPIDS    LGT RAIN  52  52 100 SE10      29.82F FOG
CAMP DOUGLAS   LGT RAIN  54  54 100 SE9       29.81F
$$

WIZ011>013-019>022-031-037>040-048>050-210000-
NORTHEAST WISCONSIN

CITY           SKY/WX    TMP DP  RH WIND       PRES   REMARKS
ANTIGO         DRIZZLE   43  40  91 SE21G26   29.86S
SHAWANO        LGT RAIN  51  43  73 S8        29.91S
OCONTO         CLOUDY    48  37  63 SE13      29.93F
STURGEON BAY   CLOUDY    48  35  60 SE17G26   29.95F
GREEN BAY      LGT RAIN  51  41  68 SE25G33   29.92F
MANITOWOC      NOT AVBL
APPLETON       CLOUDY    48  39  71 SE14G20   29.89F
CLINTONVILLE   CLOUDY    50  41  71 S9        29.90R
OSHKOSH        CLOUDY    52  43  71 SE17      29.88F
$$

WIZ032>034-041-042-053>061-210000-
SOUTHWEST WISCONSIN

CITY           SKY/WX    TMP DP  RH WIND       PRES   REMARKS
LA CROSSE      LGT RAIN  55  52  89 S12       29.77R FOG
SPARTA         RAIN      55  54  95 S16G22    29.78F
VIROQUA        CLOUDY    54  54  99 S18       29.80S
BOSCOBEL       LGT RAIN  58  54  86 VRB7      29.82F FOG
PRAIRIE DU CHI RAIN      55  54  96 SE8       29.81S
PLATTEVILLE    CLOUDY    56  56 100 SE10      29.85F
$$

WIZ056-057-062-063-064-067-068-210000-
SOUTH CENTRAL WISCONSIN

CITY           SKY/WX    TMP DP  RH WIND       PRES   REMARKS
REEDSBURG      RAIN      55  55 100 SE6       29.85R
BARABOO/DELLS  RAIN      55  51  88 SE8       29.85F
LONE ROCK      LGT RAIN  57  54  89 SE9       29.85S FOG
MINERAL POINT  RAIN      55  55 100 SE10      29.85R
MADISON        LGT RAIN  61  52  72 S14       29.87R
MIDDLETON      CLOUDY    59  54  82 SE8       29.87R
WATERTOWN      MOCLDY    56  47  73 SE10      29.89F
MONROE         CLOUDY    63  52  67 S16G22    29.87R
JANESVILLE     CLOUDY    64  52  63 SE18      29.88F
$$

WIZ051-052-058>065-066-070>072-210000-
SOUTHEAST WISCONSIN

CITY           SKY/WX    TMP DP  RH WIND       PRES   REMARKS
MILWAUKEE      CLOUDY    57  43  59 S18       29.97S
WAUKESHA       MOCLDY    55  43  62 SE12G23   29.95F
MILWAUKEE/TIMM MOCLDY    55  39  54 SE12      29.97F
RACINE         CLOUDY    54  40  59 S17G25    29.98S
KENOSHA        CLOUDY    57  43  59 SE20G25   29.96F
FOND DU LAC    CLOUDY    53  43  68 SE17      29.90S
SHEBOYGAN      CLOUDY    47  39  74 S8        29.96F
WEST BEND      CLOUDY    52  43  71 SE8       29.95S
JUNEAU         CLOUDY    54  46  73 SE16      29.90F
$$

LSZ147-162-210000-
LAKE SUPERIOR

STATION/POSITION TIME  TEMP    WIND        PRES    WAVE
                       AIR SEA DIR/SP/G            HT/PER
                 (UTC) (F)     (DEG/KT/KT) (MB)    (FT/S)
DEVILS ISLAND    2200   38      60/ 13/ 14 1006.2F
PORT WING        2240   37      30/  3/  7 1004.1F
SAXON HARBOR     2230   51     180/  7/ 21 1003.7F
$$

LMZ867-665-643>646-210000-
LAKE MICHIGAN

STATION/POSITION TIME  TEMP    WIND        PRES    WAVE
                       AIR SEA DIR/SP/G            HT/PER
                 (UTC) (F)     (DEG/KT/KT) (MB)    (FT/S)
CHAMBERS ISLAND  2240   48     110/  8/ 14 1014.2F
NORTHPORT PIER   2240   40     150/ 13/ 16 1015.2F
SISTER BAY       2150   49     140/ 14/ 19   N/A
ALGOMA LAKESHORE 2110          150/  7/  8   N/A
KEWAUNEE LAKESHO 2230   40     180/  8/ 10 1014.6F
SHEBOYGAN LAKESH 2200   41     190/  8/  9 1016.0F
PORT WASHINGTON  2230   45     170/  3/  5 1015.9F
MILWAUKEE LAKESH 2230   44     160/ 10/ 12   N/A
KENOSHA   LAKESH 2200   44     190/  9/ 13 1014.9
$$

TC  - TEMPERATURE IN CELSIUS
VSB - VISIBILITY IN STATUTE MILES
WCI - WIND CHILL INDEX
HX  - HEAT INDEX





USA.gov is the U.S. government's official web portal to all federal, state and local government web resources and services.